Flag for Germany Weather past 2 weeks in Aschaffenburg, Bavaria, Germany

Now
51 °F

Partly sunny.


Feels Like: 51 °F
Forecast: 42 / 53 °F
Wind: 1 mph from North

Location: Frankfurt / M-Flughafen

Current Time: Oct 24, 2014 at 6:40:49 PM

Latest Report: Oct 24, 2014 at 6:00 PM


Visibility: 13 mi

Pressure: 30.14 "Hg

Humidity: 88%

Dew point: 48 °F

Location of AschaffenburgLocation

Historic Weather in Aschaffenburg — Graph

°F

Aschaffenburg temperature yesterday

Maximum temperature yesterday: 54 °F (at 4:00 PM)
Minimum temperature yesterday: 45 °F (at 10:00 PM)
Average temperature yesterday: 49 °F

Past Weeks' High & Low Weather Summary

 TemperatureHumidityPressure
High71 °F (Oct 19, 4:00 PM)100% (Oct 10, 12:00 AM)30.28 "Hg (Oct 10, 12:00 AM)
Low38 °F (Oct 24, 4:00 AM)61% (Oct 20, 4:00 PM)29.58 "Hg (Oct 21, 6:00 PM)
Average56 °F90%29.96 "Hg
* Reported Oct 9 4:00 PM — Oct 24 4:00 PM, Aschaffenburg, Weather by CustomWeather, © 2014

Note: Actual official high and low records may vary slightly from our data, if they occured in-between our weather recording intervals... More about our weather records

Advertising

Aschaffenburg weather history for previous 24 hours

 ConditionsComfort  
Time TempWeatherWind HumidityBarometerVisibility
4:00 PM
Oct 24
55 °FPartly sunny.2 mph69%30.16 "Hg12 mi
3:00 PM54 °FScattered clouds.2 mph72%30.18 "Hg11 mi
2:00 PM53 °FScattered clouds.1 mph76%30.20 "Hg9 mi
1:00 PM50 °FFog.1 mph89%30.23 "Hg4 mi
12:00 PM46 °FFog.2 mph93%30.24 "Hg2 mi
10:00 AM42 °FFog.1 mphN/A30.25 "Hg0 mi
9:00 AM42 °FFog.1 mphN/A30.25 "Hg0 mi
8:00 AM42 °FFog.1 mph100%30.24 "Hg0 mi
7:00 AM42 °FFog.1 mphN/A30.24 "Hg0 mi
6:00 AM42 °FFog.1 mph100%30.24 "Hg0 mi
5:00 AM41 °FFog.No wind100%30.25 "Hg1 mi
4:00 AM38 °FFog.1 mph99%30.26 "Hg5 mi
3:00 AM40 °FFog.1 mph100%30.27 "Hg5 mi
2:00 AM40 °FFog.No wind100%30.27 "Hg5 mi
1:00 AM42 °FFog.1 mph100%30.27 "Hg8 mi
12:00 AM43 °FFog.1 mph99%30.27 "Hg8 mi
10:00 PM
Oct 23
45 °FPassing clouds.1 mph99%30.26 "Hg11 mi
9:00 PM46 °FPassing clouds.2 mph99%30.26 "Hg11 mi
8:00 PM47 °FFog.2 mph97%30.26 "Hg12 mi
7:00 PM50 °FOvercast.2 mph87%30.24 "Hg16 mi
6:00 PM52 °FPartly sunny.3 mph83%30.24 "Hg16 mi
Weather by CustomWeather, © 2014

See weather overviewHow to use our weather pages